Change the Weather History Date:

Thursday, October 3, 2013

  Actual Average (KNSE) Record (KNSE)
Temperature  
Mean Temperature 78 °F -  
Max Temperature 88 °F 80 °F 88 °F (2013)
Min Temperature 68 °F 62 °F 48 °F (2011)
Cooling Degree Days 12    
Growing Degree Days 28 (Base 50)    
Moisture  
Dew Point 69 °F    
Average Humidity 75    
Maximum Humidity 87    
Minimum Humidity 51    
Precipitation  
Precipitation 0.00 in - - ()
Sea Level Pressure  
Sea Level Pressure 30.00 in    
Wind  
Wind Speed 7 mph (ESE)    
Max Wind Speed 12 mph    
Max Gust Speed 18 mph    
Visibility 10 miles    
Events      
Averages and records for this station are not official NWS values.
T = Trace of Precipitation, MM = Missing Value Source: NWS Daily Summary

Daily Weather History Graph

Daily Weather History Graph

Search for Another Location

Airport or City:

Trip Planner

Search our weather history database for the weather conditions in past years. The results will help you decide how hot, cold, wet, or windy it might be!

Date:

Astronomy

Oct. 03, 2013 Rise Set
Actual Time 6:43 AM CDT 6:30 PM CDT
Civil Twilight 6:18 AM CDT 6:54 PM CDT
Nautical Twilight 5:51 AM CDT 7:22 PM CDT
Astronomical Twilight 5:23 AM CDT 7:50 PM CDT
Moon 5:19 AM CDT (10/3) 5:37 PM CDT (10/3)
Length of Visible Light 12h 35m
Length of Day
11h 47m
Waning Crescent, 2% of the Moon is Illuminated
Oct 3
Waning Crescent
Oct 4
New
Oct 11
First Quarter
Oct 18
Full
Oct 26
Last Quarter

Hourly Weather History & Observations

Time (CDT) Temp. Heat Index Dew Point Humidity Pressure Visibility Wind Dir Wind Speed Gust Speed Precip Events Conditions
12:56 AM 73.9 °F - 68.0 °F 82% 30.01 in 10.0 mi ESE 5.8 mph - N/A   Overcast
1:56 AM 73.9 °F - 66.9 °F 79% 29.99 in 10.0 mi ESE 9.2 mph - N/A   Mostly Cloudy
2:56 AM 72.0 °F - 66.9 °F 84% 29.98 in 10.0 mi East 6.9 mph - N/A   Clear
3:56 AM 71.1 °F - 66.0 °F 84% 29.97 in 10.0 mi East 6.9 mph - N/A   Clear
4:56 AM 72.0 °F - 64.9 °F 78% 29.97 in 10.0 mi East 6.9 mph - N/A   Clear
5:56 AM 69.1 °F - 64.0 °F 84% 29.98 in 10.0 mi NE 6.9 mph - N/A   Scattered Clouds
6:56 AM 68.0 °F - 64.0 °F 87% 29.99 in 10.0 mi ENE 5.8 mph - N/A   Scattered Clouds
7:56 AM 72.0 °F - 66.0 °F 81% 30.01 in 10.0 mi East 8.1 mph - N/A   Scattered Clouds
8:56 AM 75.9 °F - 69.1 °F 79% 30.03 in 10.0 mi ESE 8.1 mph - N/A   Scattered Clouds
9:56 AM 80.1 °F 83.6 °F 71.1 °F 74% 30.05 in 10.0 mi ESE 11.5 mph 18.4 mph N/A   Scattered Clouds
10:56 AM 84.0 °F 89.0 °F 71.1 °F 65% 30.04 in 10.0 mi SE 9.2 mph - N/A   Mostly Cloudy
11:56 AM 84.9 °F 89.4 °F 70.0 °F 61% 30.03 in 10.0 mi ESE 10.4 mph - N/A   Mostly Cloudy
12:56 PM 87.1 °F 89.9 °F 66.9 °F 51% 30.01 in 10.0 mi SE 8.1 mph 16.1 mph N/A   Mostly Cloudy
1:56 PM 87.1 °F 90.6 °F 68.0 °F 53% 29.99 in 10.0 mi SE 9.2 mph - N/A   Mostly Cloudy
2:56 PM 87.1 °F 91.3 °F 69.1 °F 55% 29.97 in 10.0 mi East 11.5 mph - N/A   Mostly Cloudy
3:56 PM 82.9 °F 87.0 °F 70.0 °F 65% 29.98 in 10.0 mi South 11.5 mph - N/A   Mostly Cloudy
4:56 PM 81.0 °F 84.9 °F 71.1 °F 72% 29.97 in 10.0 mi South 5.8 mph - N/A   Mostly Cloudy
5:56 PM 79.0 °F - 72.0 °F 79% 29.98 in 10.0 mi South 5.8 mph - N/A   Mostly Cloudy
6:56 PM 77.0 °F - 72.0 °F 84% 29.98 in 10.0 mi SE 5.8 mph - N/A   Mostly Cloudy
7:56 PM 78.1 °F - 72.0 °F 81% 30.00 in 10.0 mi East 3.5 mph - N/A   Mostly Cloudy
8:56 PM 78.1 °F - 71.1 °F 79% 30.01 in 10.0 mi ESE 5.8 mph - N/A   Mostly Cloudy
9:56 PM 75.9 °F - 71.1 °F 85% 30.02 in 10.0 mi East 5.8 mph - N/A   Mostly Cloudy
11:56 PM 75.0 °F - 71.1 °F 87% 30.00 in 10.0 mi East 3.5 mph - N/A   Mostly Cloudy